Hourly Data Report for October 06, 2020

OTTAWA INTL A
ONTARIO
Current Station Operator: NAVCAN

45°19'00.000" N
75°40'00.000" W
114.90 m
6106001
71628
YOW

Download Data

Hourly Data (October 2020)
Hourly Data Report for October 6, 2020
TIME Temp Definition
°C
Dew Point Definition
°C
Rel Hum Definition
%
Wind Dir Definition
10's deg

Wind Spd Definition
km/h
Visibility Definition
km
Stn Press Definition
kPa
Hmdx Definition


Wind Chill Definition


Weather Definition


00:00 6.7 6.1 96 20 10 24.1 100.48     LegendNANA
01:00 6.9 6.2 95 19 7 24.1 100.44     Mostly Cloudy
02:00 6.5 5.9 96 16 9 24.1 100.42     LegendNANA
03:00 5.8 5.3 97 15 8 24.1 100.36     LegendNANA
04:00 7.2 6.8 97 16 13 24.1 100.29     Mainly Clear
05:00 6.8 6.5 97 15 9 24.1 100.25     LegendNANA
06:00 7.4 7.0 98 18 8 24.1 100.21     LegendNANA
07:00 8.2 7.9 97 17 11 24.1 100.19     Mainly Clear
08:00 10.4 9.5 94 18 22 24.1 100.12     LegendNANA
09:00 11.3 9.6 89 18 18 24.1 100.10     LegendNANA
10:00 12.6 9.6 81 19 25 24.1 99.97     Mostly Cloudy
11:00 13.5 8.9 74 19 24 24.1 99.88     LegendNANA
12:00 15.2 8.3 63 18 26 24.1 99.80     LegendNANA
13:00 15.3 8.2 62 19 25 24.1 99.73     Mostly Cloudy
14:00 15.3 8.5 63 20 23 24.1 99.67     Rain
15:00 15.9 8.2 60 20 28 24.1 99.57     LegendNANA
16:00 15.1 8.1 63 20 23 24.1 99.53     Mostly Cloudy
17:00 14.6 7.9 64 19 23 24.1 99.49     LegendNANA
18:00 14.2 7.6 64 20 15 24.1 99.47     LegendNANA
19:00 14.3 7.8 65 20 17 24.1 99.44     Cloudy
20:00 14.1 8.1 67 20 14 24.1 99.40     LegendNANA
21:00 14.1 8.0 66 21 12 24.1 99.34     LegendNANA
22:00 14.5 8.1 65 21 14 24.1 99.26     Cloudy
23:00 14.6 8.6 67 22 13 24.1 99.22     LegendNANA

Notes on Data Quality.

Legend

  • E = Estimated
  • M = Missing
  • NA = Not Available*
  • [empty] = Indicates an unobserved value
Date modified: